Regional Weather Roundup
Issued by NWS

Home | Current Version | Previous Version | Text Only | Print | Product List | Glossary On
Versions: 1 2 3 4 5 6 7 8 9 10 11 12 13 14 15 16 17 18 19 20 21 22 23 24 25 26 27 28 29 30 31 32 33 34 35 36 37 38 39 40 41 42 43 44 45 46 47 48 49 50
000
ASUS43 KLSX 032207
RWRMO

WEATHER ROUNDUP FOR MISSOURI
NATIONAL WEATHER SERVICE ST LOUIS MO
500 PM CDT MON AUG 03 2015

NOTE: "FAIR" INDICATES FEW OR NO CLOUDS BELOW 12,000 FEET WITH NO
       SIGNIFICANT WEATHER AND/OR OBSTRUCTIONS TO VISIBILITY.
       CURRENT SKY AND/OR WEATHER CONDITIONS ARE NOT AVAILABLE FOR
       CHILLICOTHE AND FARMINGTON.

MOZ001>031-035>038-043-044-053-054-032300-
...NORTHERN AND WESTERN MISSOURI...

CITY           SKY/WX    TMP DP  RH WIND       PRES   REMARKS
KANSAS CTY INT MOSUNNY   85  68  56 E10       29.92F
KANSAS C DTWN  SUNNY     86  69  56 E9        29.90F HX  90
LEE`S SUMMIT   SUNNY     87  71  58 E10       29.92F HX  93
ST JOSEPH      MOSUNNY   83  71  67 SE8       29.91F
CHILLICOTHE      N/A     82  67  60 VRB3      29.94F
KIRKSVILLE     MOSUNNY   77  64  64 W7        29.95F

$$
MOZ066>068-077>081-088>096-101>105-032300-
...SOUTHWEST MISSOURI...

CITY           SKY/WX    TMP DP  RH WIND       PRES   REMARKS
SPRINGFIELD    MOSUNNY   91  64  40 SW8       29.95F HX  92
JOPLIN         MOSUNNY   94  64  37 SW7       29.94S HX  95

$$
MOZ032>034-039>042-045>050-055>058-069>072-032300-
...CENTRAL MISSOURI...

CITY           SKY/WX    TMP DP  RH WIND       PRES   REMARKS
COLUMBIA       SUNNY     87  68  52 W6        29.93F HX  90
JEFFERSON CITY SUNNY     87  66  49 VRB3      29.91F
ROLLA          MOSUNNY   88  68  51 NW10      29.94F HX  91
SEDALIA        SUNNY     87  68  52 CALM      29.94F HX  90
WHITEMAN AFB   MOSUNNY   88  70  55 VRB3      29.91F HX  93
FT LEONARD WD  SUNNY     90  69  51 N6        29.94F HX  94
OSAGE BEACH    MOSUNNY   90  72  55 NE8       29.94F HX  96

$$
MOZ051-052-059>065-032300-
...EAST CENTRAL MISSOURI...

CITY           SKY/WX    TMP DP  RH WIND       PRES   REMARKS
ST LOUIS INTL  PTSUNNY   90  68  48 N12       29.91F HX  94
SPIRIT OF STL  PTSUNNY   89  68  49 W8        29.89F HX  93
ST CHARLES     PTSUNNY   88  68  51 NW7       29.89F HX  91

$$
MOZ072>076-082>087-097>100-106>115-032300-
...SOUTH CENTRAL AND SOUTHEAST MISSOURI...

CITY           SKY/WX    TMP DP  RH WIND       PRES   REMARKS
CAPE GIRARDEAU PTSUNNY   92  72  51 W8        29.89S HX  99
FARMINGTON     MOSUNNY   88  70  55 W7        29.97F HX  92
POPLAR BLUFF   SUNNY     94  69  44 SW6       29.89S HX  99
WEST PLAINS    MOSUNNY   91  65  41 NW7       29.97F HX  93
$$



USA.gov is the U.S. government's official web portal to all federal, state and local government web resources and services.